Date,TemperatureHighF,TemperatureAvgF,TemperatureLowF,DewpointHighF,DewpointAvgF,DewpointLowF,HumidityHigh,HumidityAvg,HumidityLow,PressureMaxIn,PressureMinIn,WindSpeedMaxMPH,WindSpeedAvgMPH,GustSpeedMaxMPH,PrecipitationSumIn
2013-8-1,74.7,52.7,0.0,66.0,48.7,0.0,97,67,45,29.23,29.03,7,1,9,0.39
2013-8-2,81.0,70.8,66.7,65.9,56.1,37.9,97,66,24,29.09,29.00,6,0,7,0.00
2013-8-3,73.8,66.3,63.0,61.5,54.6,47.8,72,66,53,29.09,29.03,6,0,7,0.08
2013-8-4,79.3,67.8,59.5,59.0,50.0,33.3,87,58,20,29.15,29.03,5,0,9,0.04
2013-8-5,74.8,64.5,55.8,50.7,36.9,21.9,80,41,15,29.23,29.15,5,0,7,0.00
2013-8-6,79.3,67.6,58.6,49.2,36.1,26.6,60,33,17,29.32,29.23,7,1,8,0.00
2013-8-7,75.4,67.5,60.6,59.1,53.6,0.0,84,63,34,29.35,29.26,8,1,9,0.00
2013-8-8,77.4,72.6,68.9,66.6,61.7,59.1,72,69,63,29.26,29.21,7,1,9,0.28
2013-8-9,77.7,59.5,0.0,76.4,56.7,0.0,97,70,59,29.21,29.00,7,1,10,1.34
2013-8-10,79.9,74.5,64.4,76.4,57.1,37.4,97,60,30,29.23,29.06,5,0,6,0.00
2013-8-11,78.1,67.7,58.3,52.5,40.3,23.8,60,39,15,29.32,29.21,5,0,7,0.00
2013-8-12,79.5,70.4,64.2,63.3,47.9,26.0,97,51,15,29.23,29.12,5,0,7,0.00
2013-8-13,72.5,34.5,0.0,64.4,30.6,0.0,82,38,65,29.15,28.91,7,0,7,0.28
2013-8-14,73.0,65.3,56.5,64.1,42.5,29.0,82,47,21,29.21,28.94,7,1,12,0.00
2013-8-15,74.8,63.7,54.3,47.6,38.5,24.2,73,43,16,29.32,29.23,6,0,6,0.00
2013-8-16,76.8,66.3,58.1,52.8,38.8,29.3,73,39,20,29.38,29.29,4,0,5,0.00
2013-8-17,78.8,68.2,59.4,56.5,42.9,31.1,80,43,20,29.47,29.38,7,0,7,0.00
2013-8-18,76.1,68.0,63.0,56.8,50.5,42.2,70,55,34,29.44,29.32,4,0,5,0.00
2013-8-19,78.6,69.4,62.6,59.1,52.4,41.6,73,57,30,29.32,29.21,4,0,4,0.00
2013-8-20,82.6,73.4,68.9,59.1,49.2,34.8,71,46,19,29.32,29.23,4,0,6,0.00
2013-8-21,83.8,73.7,64.8,61.9,48.9,35.8,84,46,19,29.38,29.23,6,0,7,0.00
2013-8-22,74.5,70.6,68.7,67.9,60.8,49.4,80,72,48,29.26,29.06,5,0,7,0.20
2013-8-23,78.1,70.7,63.9,65.8,47.9,30.1,83,49,18,29.32,29.06,7,1,7,0.00
2013-8-24,74.8,66.1,58.1,42.5,35.2,23.2,49,33,15,29.53,29.32,6,0,7,0.00
2013-8-25,78.8,67.9,58.6,55.8,39.5,24.0,82,41,15,29.56,29.41,5,0,7,0.00
2013-8-26,73.4,68.6,63.9,63.5,54.2,39.7,79,61,38,29.41,29.12,4,0,5,0.12
2013-8-27,78.4,59.4,0.0,71.6,50.8,0.0,97,57,49,29.12,29.00,5,0,7,0.59
2013-8-28,82.6,74.2,68.2,70.5,62.6,49.3,97,71,32,29.12,29.06,6,0,7,0.55
2013-8-29,73.9,47.4,0.0,67.3,40.5,0.0,97,49,47,29.23,29.12,7,0,8,0.00
2013-8-30,79.0,71.0,67.1,67.3,61.8,51.5,90,75,40,29.23,29.06,6,0,6,0.00
2013-8-31,79.9,56.2,0.0,70.6,50.3,0.0,89,58,55,29.06,29.00,6,0,7,0.00